Home > Weather > Kashan > Past weeks

Flag for Iran Past Weather in Kashan, Iran — Yesterday and Last 2 Weeks

Now
93 °F

Sunny.


Feels Like: 89 °F
Forecast: 63 / 92 °F
Wind: 9 mph from Southwest

Location: Kashan Airport

Current Time: May 25, 2016 at 3:46:32 PM

Latest Report: May 25, 2016 at 2:30 PM


Visibility: 10 mi

Pressure: 29.71 "Hg (26.76 "Hg at 939m altitude)

Humidity: 11%

Dew Point: 30 °F

Location of KashanLocation

Past Weather in Kashan — Graph

°F

Kashan Temperature Yesterday

Maximum temperature yesterday: 99 °F (at 5:30 PM)
Minimum temperature yesterday: 68 °F (at 5:30 AM)
Average temperature yesterday: 84 °F

High & Low Weather Summary for the Past Weeks

 TemperatureHumidityPressure
High102 °F (May 17, 3:30 PM)88% (May 11, 6:30 AM)30.07 "Hg (May 11, 6:30 AM)
Low55 °F (May 12, 6:30 AM)9% (May 20, 5:30 PM)29.68 "Hg (May 20, 5:30 PM)
Average81 °F32%29.93 "Hg
* Reported May 10 2:30 PM — May 25 2:30 PM, Kashan, Weather by CustomWeather, © 2016

Note: Actual official high and low records may vary slightly from our data, if they occured in-between our weather recording intervals... More about our weather records

Advertising

Kashan Weather History for the Previous 24 Hours

Scroll right to see more
 ConditionsComfort  
Time TempWeatherWind HumidityBarometerVisibility
2:30 PM
Wed, May 25
93 °FSunny.9 mph11%29.71 "Hg10 mi
12:30 PM91 °FSunny.22 mph17%29.74 "Hg10 mi
11:30 AM90 °FSunny.29 mph20%29.74 "Hg10 mi
9:30 AM82 °FSunny.9 mph26%29.74 "Hg10 mi
8:30 AM82 °FSunny.No wind26%29.74 "Hg10 mi
6:30 AM75 °FClear.No wind31%29.71 "Hg10 mi
5:30 AM75 °FClear.No wind31%29.71 "Hg10 mi
3:30 AM81 °FClear.No wind30%29.71 "Hg10 mi
2:30 AM82 °FClear.No wind26%29.74 "Hg10 mi
12:30 AM88 °FClear.7 mph24%29.77 "Hg10 mi
11:30 PM
Tue, May 24
88 °FClear.12 mph24%29.77 "Hg10 mi
9:30 PM88 °FPartly sunny.No wind29%29.74 "HgN/A
8:30 PM90 °FBroken clouds.No wind27%29.74 "HgN/A
6:30 PM97 °FBroken clouds.No wind20%29.74 "HgN/A
5:30 PM99 °FPartly sunny.5 mph14%29.77 "HgN/A
3:30 PM93 °FSunny.No wind20%29.83 "Hg10 mi
Weather by CustomWeather, © 2016

See weather overviewHow to use our weather pages